TimeAKST,TemperatureF,Dew PointF,Humidity,Sea Level PressureIn,VisibilityMPH,Wind Direction,Wind SpeedMPH,Gust SpeedMPH,PrecipitationIn,Events,Conditions,WindDirDegrees,DateUTC
12:16 AM,39.2,30.2,70,28.87,7.0,SSE,19.6,29.9,N/A,,Overcast,150,2012-12-09 09:16:00
12:36 AM,41.0,30.2,65,28.88,8.0,South,16.1,21.9,N/A,,Overcast,170,2012-12-09 09:36:00
12:56 AM,39.2,30.2,70,28.88,10.0,South,11.5,20.7,N/A,,Overcast,180,2012-12-09 09:56:00
1:16 AM,41.0,30.2,65,28.88,9.0,SSE,17.3,20.7,N/A,,Overcast,160,2012-12-09 10:16:00
1:36 AM,39.2,30.2,70,28.89,9.0,SE,6.9,17.3,N/A,,Overcast,130,2012-12-09 10:36:00
1:56 AM,39.2,32.0,75,28.89,10.0,SE,6.9,18.4,N/A,,Overcast,140,2012-12-09 10:56:00
2:16 AM,39.2,32.0,75,28.90,10.0,SE,9.2,-,N/A,,Overcast,140,2012-12-09 11:16:00
2:36 AM,39.2,32.0,75,28.90,9.0,ESE,6.9,-,N/A,,Overcast,120,2012-12-09 11:36:00
2:56 AM,39.2,32.0,75,28.91,8.0,SSE,4.6,-,N/A,,Overcast,160,2012-12-09 11:56:00
3:16 AM,41.0,32.0,70,28.92,5.0,South,9.2,-,N/A,,Overcast,190,2012-12-09 12:16:00
3:36 AM,41.0,33.8,76,28.93,5.0,WSW,6.9,-,N/A,,Overcast,250,2012-12-09 12:36:00
3:56 AM,41.0,32.0,70,28.94,5.0,SW,8.1,-,N/A,,Overcast,230,2012-12-09 12:56:00
4:16 AM,42.8,32.0,66,28.94,5.0,SE,4.6,27.6,N/A,,Overcast,140,2012-12-09 13:16:00
4:36 AM,42.8,30.2,61,28.95,5.0,SW,27.6,39.1,N/A,,Overcast,220,2012-12-09 13:36:00
4:56 AM,42.8,32.0,66,28.96,4.0,SSW,17.3,44.9,N/A,,Overcast,200,2012-12-09 13:56:00
5:16 AM,41.0,32.0,70,28.98,5.0,South,18.4,31.1,N/A,,Overcast,190,2012-12-09 14:16:00
5:36 AM,41.0,32.0,70,28.98,5.0,SSE,21.9,31.1,N/A,,Overcast,160,2012-12-09 14:36:00
5:56 AM,42.8,30.2,61,29.01,6.0,SW,9.2,29.9,N/A,,Overcast,230,2012-12-09 14:56:00
6:16 AM,42.8,30.2,61,29.01,9.0,SSW,12.7,29.9,N/A,,Overcast,200,2012-12-09 15:16:00
6:36 AM,42.8,30.2,61,29.02,10.0,SW,18.4,36.8,N/A,,Overcast,230,2012-12-09 15:36:00
6:56 AM,42.8,30.2,61,29.04,10.0,SSW,18.4,33.4,N/A,,Overcast,210,2012-12-09 15:56:00
7:16 AM,42.8,30.2,61,29.05,10.0,SW,27.6,40.3,N/A,,Overcast,220,2012-12-09 16:16:00
7:36 AM,42.8,30.2,61,29.07,10.0,South,19.6,35.7,N/A,,Overcast,170,2012-12-09 16:36:00
7:56 AM,41.0,30.2,65,29.09,10.0,South,19.6,38.0,N/A,,Overcast,180,2012-12-09 16:56:00
8:16 AM,42.8,30.2,61,29.11,10.0,SSW,16.1,33.4,N/A,,Overcast,210,2012-12-09 17:16:00
8:36 AM,41.0,28.4,61,29.13,10.0,South,18.4,42.6,N/A,,Overcast,190,2012-12-09 17:36:00
8:56 AM,41.0,28.4,61,29.13,10.0,SW,27.6,38.0,N/A,,Overcast,220,2012-12-09 17:56:00
9:16 AM,42.8,28.4,57,29.16,10.0,NNE,8.1,25.3,N/A,,Overcast,30,2012-12-09 18:16:00
9:36 AM,42.8,26.6,53,29.17,10.0,SW,9.2,-,N/A,,Overcast,230,2012-12-09 18:36:00
9:56 AM,41.0,28.4,61,29.19,10.0,WSW,6.9,21.9,N/A,,Overcast,240,2012-12-09 18:56:00
10:16 AM,41.0,28.4,61,29.21,10.0,SW,12.7,29.9,N/A,,Overcast,220,2012-12-09 19:16:00
10:36 AM,41.0,28.4,61,29.23,10.0,SW,17.3,36.8,N/A,,Overcast,230,2012-12-09 19:36:00
10:56 AM,41.0,28.4,61,29.24,10.0,SW,20.7,35.7,N/A,,Overcast,230,2012-12-09 19:56:00
11:16 AM,39.2,28.4,65,29.25,10.0,SSW,24.2,33.4,N/A,,Overcast,210,2012-12-09 20:16:00
11:36 AM,41.0,26.6,57,29.25,10.0,SSW,29.9,44.9,N/A,,Mostly Cloudy,210,2012-12-09 20:36:00
11:56 AM,-9999,-9999,N/A,29.27,10.0,SW,24.2,36.8,N/A,,Mostly Cloudy,220,2012-12-09 20:56:00
12:16 PM,-9999,-9999,N/A,29.29,6.0,SSW,29.9,36.8,N/A,,Mostly Cloudy,210,2012-12-09 21:16:00
12:36 PM,39.2,26.6,61,29.31,9.0,SSW,27.6,35.7,N/A,,Overcast,210,2012-12-09 21:36:00
12:56 PM,37.4,28.4,70,29.33,10.0,South,11.5,23.0,N/A,,Mostly Cloudy,170,2012-12-09 21:56:00
1:16 PM,39.2,26.6,61,29.34,10.0,SW,19.6,32.2,N/A,,Overcast,230,2012-12-09 22:16:00
1:36 PM,39.2,26.6,61,29.34,10.0,SSW,18.4,41.4,N/A,,Mostly Cloudy,210,2012-12-09 22:36:00
1:56 PM,39.2,26.6,61,29.34,10.0,SSW,20.7,38.0,N/A,,Mostly Cloudy,210,2012-12-09 22:56:00
2:16 PM,39.2,26.6,61,29.36,10.0,SW,16.1,31.1,N/A,,Overcast,220,2012-12-09 23:16:00
2:36 PM,39.2,26.6,61,29.37,10.0,SW,18.4,28.8,N/A,,Mostly Cloudy,230,2012-12-09 23:36:00
2:56 PM,39.2,26.6,61,29.37,10.0,SW,21.9,32.2,N/A,,Overcast,220,2012-12-09 23:56:00
3:16 PM,39.2,26.6,61,29.39,9.0,WSW,18.4,23.0,N/A,,Mostly Cloudy,240,2012-12-10 00:16:00
3:36 PM,39.2,26.6,61,29.41,10.0,WSW,10.4,19.6,N/A,,Scattered Clouds,250,2012-12-10 00:36:00
3:56 PM,37.4,26.6,65,29.42,10.0,WNW,10.4,-,N/A,,Mostly Cloudy,290,2012-12-10 00:56:00
4:16 PM,37.4,28.4,70,29.43,10.0,NW,6.9,-,N/A,,Scattered Clouds,320,2012-12-10 01:16:00
4:36 PM,35.6,30.2,81,29.45,10.0,NE,9.2,-,N/A,,Scattered Clouds,50,2012-12-10 01:36:00
4:56 PM,35.6,28.4,75,29.46,10.0,NNE,6.9,-,N/A,,Mostly Cloudy,30,2012-12-10 01:56:00
5:16 PM,35.6,28.4,75,29.47,10.0,NE,4.6,-,N/A,,Overcast,40,2012-12-10 02:16:00
5:36 PM,37.4,28.4,70,29.48,10.0,NNW,4.6,-,N/A,,Overcast,340,2012-12-10 02:36:00
5:56 PM,39.2,26.6,61,29.48,10.0,South,8.1,-,N/A,,Overcast,190,2012-12-10 02:56:00
6:16 PM,39.2,24.8,56,29.48,10.0,SSW,6.9,-,N/A,,Scattered Clouds,210,2012-12-10 03:16:00
6:36 PM,39.2,24.8,56,29.48,10.0,South,6.9,-,N/A,,Clear,170,2012-12-10 03:36:00
6:56 PM,39.2,23.0,52,29.49,10.0,Calm,Calm,-,N/A,,Partly Cloudy,0,2012-12-10 03:56:00
7:16 PM,39.2,24.8,56,29.49,10.0,Calm,Calm,-,N/A,,Mostly Cloudy,0,2012-12-10 04:16:00
7:36 PM,39.2,24.8,56,29.50,10.0,South,9.2,19.6,N/A,,Scattered Clouds,190,2012-12-10 04:36:00
7:56 PM,39.2,26.6,61,29.50,10.0,SSW,16.1,32.2,N/A,,Clear,210,2012-12-10 04:56:00
8:16 PM,39.2,26.6,61,29.50,10.0,SW,17.3,20.7,N/A,,Clear,230,2012-12-10 05:16:00
8:36 PM,39.2,26.6,61,29.52,10.0,SW,8.1,-,N/A,,Partly Cloudy,220,2012-12-10 05:36:00
8:56 PM,39.2,26.6,61,29.52,10.0,SW,10.4,-,N/A,,Partly Cloudy,230,2012-12-10 05:56:00
9:16 PM,39.2,26.6,61,29.52,10.0,South,8.1,-,N/A,,Mostly Cloudy,180,2012-12-10 06:16:00
9:36 PM,39.2,26.6,61,29.52,10.0,SW,11.5,-,N/A,,Mostly Cloudy,220,2012-12-10 06:36:00
9:56 PM,39.2,26.6,61,29.52,10.0,SW,20.7,25.3,N/A,,Mostly Cloudy,230,2012-12-10 06:56:00
10:16 PM,39.2,24.8,56,29.52,10.0,SW,10.4,26.5,N/A,,Mostly Cloudy,220,2012-12-10 07:16:00
10:36 PM,39.2,26.6,61,29.53,10.0,SW,10.4,21.9,N/A,,Scattered Clouds,230,2012-12-10 07:36:00
10:56 PM,39.2,24.8,56,29.53,10.0,SW,15.0,23.0,N/A,,Scattered Clouds,220,2012-12-10 07:56:00
11:16 PM,39.2,24.8,56,29.53,10.0,SW,9.2,-,N/A,,Overcast,230,2012-12-10 08:16:00
11:56 PM,37.4,24.8,60,29.53,10.0,NE,9.2,-,N/A,,Scattered Clouds,40,2012-12-10 08:56:00